When you browse on this site, cookies collect data to enhance your experience and personalize the content and advertising you see.
Visit our Privacy Policy to learn more. By continuing to use the site, you agree to this use of cookies and data.
  • en France
  • Liste des pays
  • À 7 jours
  • Température de l'eau
  • Carte météo
  • Widgets météo
  • user-avatar
    Se connecter

    Météo par heure à Wafangdian

    Ce jour, 19 Septembre, Jeudi

    Heure Température Précipitation Vent Pression Humidité
    00:00 +10°C° 0 mm 0 m/s 755 mmHg 49%
    01:00 +10°C° 0 mm 0 m/s 755 mmHg 49%
    02:00 +10°C° 0 mm 0 m/s 755 mmHg 48%
    03:00 +11°C° 0 mm 1 m/s 755 mmHg 49%
    04:00 +11°C° 0 mm 1 m/s 755 mmHg 51%
    05:00 +11°C° 0 mm 1 m/s 755 mmHg 53%
    06:00 +13°C° 0 mm 1 m/s 755 mmHg 55%
    07:00 +16°C° 0 mm 2 m/s 755 mmHg 57%
    08:00 +18°C° 0 mm 2 m/s 755 mmHg 59%
    09:00 +19°C° 0 mm 2 m/s 755 mmHg 58%
    10:00 +21°C° 0 mm 3 m/s 755 mmHg 56%
    11:00 +22°C° 0 mm 4 m/s 754 mmHg 55%
    12:00 +23°C° 0 mm 4 m/s 754 mmHg 54%
    13:00 +23°C° 0 mm 4 m/s 754 mmHg 54%
    14:00 +25°C° 0 mm 4 m/s 753 mmHg 51%
    15:00 +22°C° 0 mm 3 m/s 753 mmHg 56%
    16:00 +21°C° 0 mm 3 m/s 753 mmHg 61%
    17:00 +20°C° 0 mm 3 m/s 752 mmHg 66%
    18:00 +19°C° 0 mm 2 m/s 752 mmHg 70%
    19:00 +18°C° 0 mm 2 m/s 753 mmHg 75%
    20:00 +16°C° 0 mm 2 m/s 753 mmHg 79%
    21:00 +16°C° 0 mm 1 m/s 752 mmHg 81%
    22:00 +16°C° 0 mm 1 m/s 752 mmHg 83%
    23:00 +16°C° 0 mm 1 m/s 752 mmHg 85%

    Demain, 20 Septembre, Vendredi

    Heure Température Précipitation Vent Pression Humidité
    00:00 +16°C° 0 mm 1 m/s 752 mmHg 83%
    01:00 +16°C° 0 mm 1 m/s 752 mmHg 81%
    02:00 +16°C° 0 mm 1 m/s 752 mmHg 80%
    03:00 +16°C° 0 mm 1 m/s 751 mmHg 80%
    04:00 +16°C° 0 mm 1 m/s 751 mmHg 79%
    05:00 +16°C° 0 mm 1 m/s 751 mmHg 79%
    06:00 +18°C° 0 mm 1 m/s 751 mmHg 76%
    07:00 +20°C° 0 mm 1 m/s 752 mmHg 72%
    08:00 +21°C° 0 mm 1 m/s 752 mmHg 68%
    09:00 +21°C° 0 mm 2 m/s 752 mmHg 61%
    10:00 +24°C° 0 mm 3 m/s 752 mmHg 54%
    11:00 +25°C° 0 mm 3 m/s 752 mmHg 47%
    12:00 +25°C° 0 mm 3 m/s 752 mmHg 47%
    13:00 +26°C° 0 mm 3 m/s 752 mmHg 46%
    14:00 +26°C° 0 mm 3 m/s 752 mmHg 46%
    15:00 +25°C° 0 mm 3 m/s 752 mmHg 50%
    16:00 +24°C° 0 mm 2 m/s 752 mmHg 53%
    17:00 +23°C° 0 mm 2 m/s 752 mmHg 57%
    18:00 +21°C° 0 mm 1 m/s 752 mmHg 61%
    19:00 +20°C° 0 mm 1 m/s 753 mmHg 64%
    20:00 +16°C° 0 mm 0 m/s 753 mmHg 68%
    21:00 +18°C° 0 mm 1 m/s 753 mmHg 68%
    22:00 +16°C° 0 mm 1 m/s 753 mmHg 69%
    23:00 +16°C° 0 mm 1 m/s 753 mmHg 69%

    Après-demain, 21 Septembre, Samedi

    Heure Température Précipitation Vent Pression Humidité
    00:00 +16°C° 0 mm 1 m/s 753 mmHg 69%
    01:00 +15°C° 0 mm 1 m/s 753 mmHg 69%
    02:00 +15°C° 0 mm 1 m/s 753 mmHg 69%
    03:00 +15°C° 0 mm 1 m/s 753 mmHg 68%
    04:00 +15°C° 0 mm 1 m/s 753 mmHg 67%
    05:00 +15°C° 0 mm 1 m/s 753 mmHg 67%
    06:00 +18°C° 0 mm 1 m/s 754 mmHg 65%
    07:00 +18°C° 0 mm 2 m/s 754 mmHg 63%
    08:00 +20°C° 0 mm 2 m/s 755 mmHg 61%
    09:00 +22°C° 0 mm 3 m/s 755 mmHg 56%
    10:00 +25°C° 0 mm 4 m/s 755 mmHg 52%
    11:00 +26°C° 0 mm 5 m/s 755 mmHg 48%
    12:00 +26°C° 0 mm 5 m/s 755 mmHg 45%
    13:00 +26°C° 0 mm 6 m/s 755 mmHg 42%
    14:00 +26°C° 0 mm 6 m/s 754 mmHg 39%
    15:00 +25°C° 0 mm 5 m/s 754 mmHg 44%
    16:00 +22°C° 0 mm 5 m/s 755 mmHg 49%
    17:00 +21°C° 0 mm 4 m/s 755 mmHg 54%
    18:00 +19°C° 0 mm 4 m/s 755 mmHg 57%
    19:00 +18°C° 0 mm 4 m/s 755 mmHg 60%
    20:00 +15°C° 0 mm 4 m/s 755 mmHg 63%
    21:00 +14°C° 0 mm 4 m/s 755 mmHg 63%
    22:00 +14°C° 0 mm 4 m/s 755 mmHg 63%
    23:00 +13°C° 0 mm 3 m/s 755 mmHg 63%

    22 Septembre, Dimanche

    Heure Température Précipitation Vent Pression Humidité
    00:00 +13°C° 0 mm 3 m/s 755 mmHg 61%
    01:00 +13°C° 0 mm 3 m/s 755 mmHg 59%
    02:00 +12°C° 0 mm 3 m/s 754 mmHg 56%
    03:00 +12°C° 0 mm 4 m/s 754 mmHg 58%
    04:00 +11°C° 0 mm 4 m/s 754 mmHg 59%
    05:00 +11°C° 0 mm 4 m/s 754 mmHg 60%
    06:00 +13°C° 0 mm 4 m/s 754 mmHg 56%
    07:00 +14°C° 0 mm 5 m/s 755 mmHg 52%
    08:00 +16°C° 0 mm 5 m/s 755 mmHg 48%
    09:00 +19°C° 0 mm 5 m/s 755 mmHg 44%
    10:00 +21°C° 0 mm 5 m/s 755 mmHg 40%
    11:00 +22°C° 0 mm 5 m/s 755 mmHg 35%
    12:00 +23°C° 0 mm 5 m/s 754 mmHg 36%
    13:00 +23°C° 0 mm 5 m/s 754 mmHg 36%
    14:00 +25°C° 0 mm 4 m/s 754 mmHg 37%
    15:00 +23°C° 0 mm 4 m/s 753 mmHg 42%
    16:00 +21°C° 0 mm 4 m/s 753 mmHg 48%
    17:00 +20°C° 0 mm 4 m/s 753 mmHg 53%
    18:00 +19°C° 0 mm 3 m/s 753 mmHg 56%
    19:00 +17°C° 0 mm 3 m/s 753 mmHg 59%
    20:00 +15°C° 0 mm 2 m/s 753 mmHg 62%
    21:00 +15°C° 0 mm 2 m/s 753 mmHg 64%
    22:00 +14°C° 0 mm 2 m/s 752 mmHg 65%
    23:00 +14°C° 0 mm 2 m/s 752 mmHg 67%

    23 Septembre, Lundi

    Heure Température Précipitation Vent Pression Humidité
    00:00 +13°C° 0 mm 2 m/s 752 mmHg 68%
    01:00 +13°C° 0 mm 2 m/s 751 mmHg 70%
    02:00 +13°C° 0 mm 2 m/s 751 mmHg 72%
    03:00 +12°C° 0 mm 3 m/s 751 mmHg 74%
    04:00 +11°C° 0 mm 3 m/s 751 mmHg 76%
    05:00 +11°C° 0 mm 4 m/s 751 mmHg 78%
    06:00 +13°C° 0 mm 4 m/s 751 mmHg 72%
    07:00 +15°C° 0 mm 5 m/s 751 mmHg 67%
    08:00 +16°C° 0 mm 5 m/s 751 mmHg 62%
    09:00 +19°C° 0 mm 6 m/s 752 mmHg 55%
    10:00 +21°C° 0 mm 6 m/s 752 mmHg 48%
    11:00 +22°C° 0 mm 6 m/s 752 mmHg 42%
    12:00 +23°C° 0 mm 6 m/s 752 mmHg 42%
    13:00 +23°C° 0 mm 5 m/s 751 mmHg 42%
    14:00 +23°C° 0 mm 5 m/s 751 mmHg 42%
    15:00 +22°C° 0 mm 4 m/s 751 mmHg 47%
    16:00 +21°C° 0 mm 3 m/s 751 mmHg 52%
    17:00 +20°C° 0 mm 3 m/s 751 mmHg 58%
    18:00 +19°C° 0 mm 2 m/s 751 mmHg 61%
    19:00 +17°C° 0 mm 2 m/s 752 mmHg 63%
    20:00 +16°C° 0 mm 1 m/s 752 mmHg 66%
    21:00 +15°C° 0 mm 1 m/s 752 mmHg 67%
    22:00 +15°C° 0 mm 1 m/s 752 mmHg 67%
    23:00 +15°C° 0 mm 1 m/s 752 mmHg 67%

    24 Septembre, Mardi

    Heure Température Précipitation Vent Pression Humidité
    00:00 +15°C° 0 mm 1 m/s 752 mmHg 67%
    01:00 +15°C° 0 mm 1 m/s 752 mmHg 66%
    02:00 +14°C° 0 mm 0 m/s 752 mmHg 66%
    03:00 +14°C° 0 mm 0 m/s 752 mmHg 64%
    04:00 +14°C° 0 mm 0 m/s 752 mmHg 63%
    05:00 +14°C° 0 mm 0 m/s 753 mmHg 62%
    06:00 +16°C° 0 mm 0 m/s 753 mmHg 58%
    07:00 +18°C° 0 mm 0 m/s 753 mmHg 54%
    08:00 +20°C° 0 mm 0 m/s 754 mmHg 51%
    09:00 +22°C° 0 mm 0 m/s 754 mmHg 47%
    10:00 +24°C° 0 mm 0 m/s 754 mmHg 43%
    11:00 +26°C° 0 mm 0 m/s 755 mmHg 39%
    12:00 +28°C° 0 mm 1 m/s 754 mmHg 38%
    13:00 +29°C° 0 mm 1 m/s 754 mmHg 37%
    14:00 +29°C° 0 mm 2 m/s 754 mmHg 37%
    15:00 +27°C° 0 mm 2 m/s 754 mmHg 45%
    16:00 +26°C° 0 mm 2 m/s 754 mmHg 53%
    17:00 +24°C° 0 mm 2 m/s 754 mmHg 61%
    18:00 +23°C° 0 mm 1 m/s 754 mmHg 66%
    19:00 +21°C° 0 mm 1 m/s 754 mmHg 70%
    20:00 +20°C° 0 mm 1 m/s 755 mmHg 75%
    21:00 +19°C° 0 mm 1 m/s 755 mmHg 74%
    22:00 +19°C° 0 mm 1 m/s 755 mmHg 74%
    23:00 +17°C° 0 mm 0 m/s 755 mmHg 73%
    Voir plus